Wetterdaten: Freitag, 06.03.2015
Datum Zeit Auen-Temp. Temp. -10 cm Luftfeuchte Luftfeuchte Luftdruck Regen Wind Richtung Richtung Taupunkt Windchill Windben
06.03.2015 00:00 -3,0 C 1,1 C 78 % 78 % 1035,7 hPa 0,0 l/m 0,0 km/h (0 Bft) SO 135 -6,3 C -3,6 C 0,0 km/h (0 Bft)
06.03.2015 00:05 -3,0 C 1,1 C 78 % 78 % 1035,7 hPa 0,0 l/m 0,0 km/h (0 Bft) SO 135 -6,3 C -3,6 C 0,0 km/h (0 Bft)
06.03.2015 00:10 -3,0 C 1,1 C 78 % 78 % 1035,7 hPa 0,0 l/m 0,0 km/h (0 Bft) SO 135 -6,3 C -3,5 C 0,0 km/h (0 Bft)
06.03.2015 00:15 -3,0 C 1,1 C 78 % 78 % 1035,6 hPa 0,0 l/m 0,0 km/h (0 Bft) SO 135 -6,3 C -3,5 C 0,0 km/h (0 Bft)
06.03.2015 00:20 -3,0 C 1,1 C 78 % 78 % 1035,6 hPa 0,0 l/m 0,0 km/h (0 Bft) SO 135 -6,3 C -3,5 C 0,0 km/h (0 Bft)
06.03.2015 00:25 -3,0 C 1,1 C 78 % 78 % 1035,6 hPa 0,0 l/m 0,0 km/h (0 Bft) SO 135 -6,3 C -3,5 C 0,0 km/h (0 Bft)
06.03.2015 00:30 -3,0 C 1,1 C 78 % 78 % 1035,6 hPa 0,0 l/m 0,0 km/h (0 Bft) W 270 -6,3 C -3,5 C 0,0 km/h (0 Bft)
06.03.2015 00:35 -3,0 C 1,1 C 78 % 78 % 1035,3 hPa 0,0 l/m 0,0 km/h (0 Bft) SO 135 -6,3 C -3,5 C 0,0 km/h (0 Bft)
06.03.2015 00:40 -3,0 C 1,1 C 78 % 78 % 1035,3 hPa 0,0 l/m 0,0 km/h (0 Bft) O-NO 67 -6,3 C -3,5 C 0,0 km/h (0 Bft)
06.03.2015 00:45 -3,0 C 1,1 C 78 % 78 % 1035,3 hPa 0,0 l/m 0,0 km/h (0 Bft) O-NO 67 -6,3 C -3,5 C 0,0 km/h (0 Bft)
06.03.2015 00:50 -3,0 C 1,1 C 78 % 78 % 1035,3 hPa 0,0 l/m 1,8 km/h (1 Bft) SW 225 -6,3 C -3,4 C 4,8 km/h (1 Bft)
06.03.2015 00:55 -3,0 C 1,1 C 78 % 78 % 1035,4 hPa 0,0 l/m 1,9 km/h (1 Bft) SO 135 -6,3 C -3,2 C 2,9 km/h (1 Bft)
06.03.2015 01:00 -3,0 C 1,1 C 78 % 78 % 1035,4 hPa 0,0 l/m 0,6 km/h (0 Bft) S-SO 157 -6,3 C -3,4 C 0,0 km/h (0 Bft)
06.03.2015 01:05 -3,0 C 1,1 C 78 % 78 % 1035,4 hPa 0,0 l/m 0,2 km/h (0 Bft) S 180 -6,3 C -3,6 C 0,0 km/h (0 Bft)
06.03.2015 01:10 -3,0 C 1,1 C 78 % 78 % 1035,4 hPa 0,0 l/m 1,0 km/h (0 Bft) S-SO 157 -6,3 C -3,8 C 5,1 km/h (1 Bft)
06.03.2015 01:15 -3,2 C 1,1 C 78 % 78 % 1035,2 hPa 0,0 l/m 1,0 km/h (0 Bft) S-SO 157 -6,5 C -4,2 C 0,0 km/h (0 Bft)
06.03.2015 01:20 -3,3 C 1,2 C 78 % 78 % 1035,2 hPa 0,0 l/m 0,0 km/h (0 Bft) S-SO 157 -6,6 C -4,6 C 0,0 km/h (0 Bft)
06.03.2015 01:25 -3,6 C 1,2 C 78 % 78 % 1035,2 hPa 0,0 l/m 0,0 km/h (0 Bft) SO 135 -6,9 C -4,9 C 0,0 km/h (0 Bft)
06.03.2015 01:30 -3,9 C 1,2 C 78 % 78 % 1035,2 hPa 0,0 l/m 0,0 km/h (0 Bft) S-SO 157 -7,2 C -5,1 C 0,0 km/h (0 Bft)
06.03.2015 01:35 -3,8 C 1,2 C 78 % 78 % 1035,1 hPa 0,0 l/m 0,0 km/h (0 Bft) SO 135 -7,1 C -5,1 C 0,0 km/h (0 Bft)
06.03.2015 01:40 -3,7 C 1,2 C 79 % 79 % 1035,1 hPa 0,0 l/m 0,0 km/h (0 Bft) N-NO 22 -6,8 C -4,9 C 0,0 km/h (0 Bft)
06.03.2015 01:45 -3,8 C 1,2 C 79 % 79 % 1035,1 hPa 0,0 l/m 0,0 km/h (0 Bft) N-NO 22 -6,9 C -4,7 C 0,0 km/h (0 Bft)
06.03.2015 01:50 -3,8 C 1,2 C 79 % 79 % 1035,1 hPa 0,0 l/m 0,0 km/h (0 Bft) SW 225 -6,9 C -4,8 C 0,0 km/h (0 Bft)
06.03.2015 01:55 -3,8 C 1,2 C 79 % 79 % 1035,2 hPa 0,0 l/m 0,0 km/h (0 Bft) S-SO 157 -6,9 C -4,8 C 0,0 km/h (0 Bft)
06.03.2015 02:00 -3,8 C 1,2 C 79 % 79 % 1035,2 hPa 0,0 l/m 0,0 km/h (0 Bft) S-SO 157 -6,9 C -4,7 C 0,0 km/h (0 Bft)
06.03.2015 02:05 -3,7 C 1,2 C 79 % 79 % 1035,2 hPa 0,0 l/m 0,0 km/h (0 Bft) SO 135 -6,8 C -4,6 C 0,0 km/h (0 Bft)
06.03.2015 02:10 -3,9 C 1,2 C 79 % 79 % 1035,2 hPa 0,0 l/m 0,0 km/h (0 Bft) SO 135 -7,0 C -4,6 C 0,0 km/h (0 Bft)
06.03.2015 02:15 -4,0 C 1,2 C 79 % 79 % 1035,1 hPa 0,0 l/m 0,0 km/h (0 Bft) O-SO 112 -7,1 C -4,8 C 0,0 km/h (0 Bft)
06.03.2015 02:20 -4,3 C 1,2 C 79 % 79 % 1035,1 hPa 0,0 l/m 0,0 km/h (0 Bft) O-SO 112 -7,4 C -5,0 C 0,0 km/h (0 Bft)
06.03.2015 02:25 -4,5 C 1,2 C 79 % 79 % 1035,1 hPa 0,0 l/m 0,0 km/h (0 Bft) O-SO 112 -7,6 C -5,2 C 0,0 km/h (0 Bft)
06.03.2015 02:30 -4,2 C 1,2 C 79 % 79 % 1035,1 hPa 0,0 l/m 0,6 km/h (0 Bft) S 180 -7,3 C -5,4 C 6,0 km/h (2 Bft)
06.03.2015 02:35 -4,1 C 1,2 C 79 % 79 % 1035,2 hPa 0,0 l/m 1,0 km/h (0 Bft) SO 135 -7,2 C -5,1 C 0,0 km/h (0 Bft)
06.03.2015 02:40 -4,2 C 1,2 C 79 % 79 % 1035,2 hPa 0,0 l/m 0,6 km/h (0 Bft) O-NO 67 -7,3 C -5,1 C 0,0 km/h (0 Bft)
06.03.2015 02:45 -4,2 C 1,2 C 79 % 79 % 1035,2 hPa 0,0 l/m 0,0 km/h (0 Bft) O 90 -7,3 C -5,2 C 0,0 km/h (0 Bft)
06.03.2015 02:50 -4,2 C 1,2 C 79 % 79 % 1035,2 hPa 0,0 l/m 0,2 km/h (0 Bft) SO 135 -7,3 C -5,2 C 0,0 km/h (0 Bft)
06.03.2015 02:55 -4,0 C 1,2 C 79 % 79 % 1035,2 hPa 0,0 l/m 0,2 km/h (0 Bft) S-SO 157 -7,1 C -5,1 C 0,0 km/h (0 Bft)
06.03.2015 03:00 -4,0 C 1,2 C 80 % 80 % 1035,2 hPa 0,0 l/m 0,0 km/h (0 Bft) O-SO 112 -6,9 C -5,0 C 0,0 km/h (0 Bft)
06.03.2015 03:05 -4,1 C 1,2 C 80 % 80 % 1035,2 hPa 0,0 l/m 0,0 km/h (0 Bft) SO 135 -7,0 C -5,0 C 0,0 km/h (0 Bft)
06.03.2015 03:10 -4,1 C 1,2 C 80 % 80 % 1035,2 hPa 0,0 l/m 0,0 km/h (0 Bft) O-NO 67 -7,0 C -5,0 C 0,0 km/h (0 Bft)
06.03.2015 03:15 -4,2 C 1,2 C 80 % 80 % 1035,1 hPa 0,0 l/m 0,0 km/h (0 Bft) SO 135 -7,1 C -5,1 C 0,0 km/h (0 Bft)
06.03.2015 03:20 -4,2 C 1,2 C 79 % 79 % 1035,1 hPa 0,0 l/m 0,0 km/h (0 Bft) O-NO 67 -7,3 C -5,1 C 0,0 km/h (0 Bft)
06.03.2015 03:25 -4,4 C 1,2 C 79 % 79 % 1035,1 hPa 0,0 l/m 0,0 km/h (0 Bft) N-NO 22 -7,5 C -5,2 C 0,0 km/h (0 Bft)
06.03.2015 03:30 -4,3 C 1,1 C 79 % 79 % 1035,1 hPa 0,0 l/m 0,0 km/h (0 Bft) S-SO 157 -7,4 C -5,3 C 0,0 km/h (0 Bft)
06.03.2015 03:35 -4,2 C 1,2 C 80 % 80 % 1035,3 hPa 0,0 l/m 0,0 km/h (0 Bft) SO 135 -7,1 C -5,1 C 0,0 km/h (0 Bft)
06.03.2015 03:40 -3,8 C 1,2 C 80 % 80 % 1035,3 hPa 0,0 l/m 0,0 km/h (0 Bft) O-SO 112 -6,7 C -4,8 C 0,0 km/h (0 Bft)
06.03.2015 03:45 -3,8 C 1,2 C 80 % 80 % 1035,3 hPa 0,0 l/m 0,0 km/h (0 Bft) S-SO 157 -6,7 C -4,6 C 0,0 km/h (0 Bft)
06.03.2015 03:50 -3,8 C 1,2 C 80 % 80 % 1035,3 hPa 0,0 l/m 0,0 km/h (0 Bft) O-NO 67 -6,7 C -4,5 C 0,0 km/h (0 Bft)
06.03.2015 03:55 -3,8 C 1,2 C 80 % 80 % 1035,4 hPa 0,0 l/m 0,0 km/h (0 Bft) O-NO 67 -6,7 C -4,4 C 0,0 km/h (0 Bft)
06.03.2015 04:00 -3,8 C 1,2 C 80 % 80 % 1035,4 hPa 0,0 l/m 0,0 km/h (0 Bft) S-SO 157 -6,7 C -4,2 C 0,0 km/h (0 Bft)
06.03.2015 04:05 -3,8 C 1,2 C 80 % 80 % 1035,4 hPa 0,0 l/m 0,0 km/h (0 Bft) O-SO 112 -6,7 C -4,1 C 0,0 km/h (0 Bft)
06.03.2015 04:10 -3,8 C 1,2 C 80 % 80 % 1035,4 hPa 0,0 l/m 0,0 km/h (0 Bft) O 90 -6,7 C -4,0 C 0,0 km/h (0 Bft)
06.03.2015 04:15 -3,8 C 1,2 C 80 % 80 % 1035,3 hPa 0,0 l/m 0,0 km/h (0 Bft) S-SO 157 -6,7 C -3,9 C 0,0 km/h (0 Bft)
06.03.2015 04:20 -3,8 C 1,2 C 80 % 80 % 1035,3 hPa 0,0 l/m 0,0 km/h (0 Bft) O-NO 67 -6,7 C -3,7 C 0,0 km/h (0 Bft)
06.03.2015 04:25 -3,1 C 1,1 C 80 % 80 % 1035,3 hPa 0,0 l/m 0,0 km/h (0 Bft) S 180 -6,0 C -3,7 C 0,0 km/h (0 Bft)
06.03.2015 04:30 -3,0 C 1,1 C 80 % 80 % 1035,3 hPa 0,0 l/m 0,0 km/h (0 Bft) O 90 -6,0 C -3,6 C 0,0 km/h (0 Bft)
06.03.2015 04:35 -3,0 C 1,1 C 80 % 80 % 1035,5 hPa 0,0 l/m 0,0 km/h (0 Bft) O 90 -6,0 C -3,6 C 0,0 km/h (0 Bft)
06.03.2015 04:40 -3,0 C 1,1 C 80 % 80 % 1035,5 hPa 0,0 l/m 0,0 km/h (0 Bft) W-NW 292 -6,0 C -3,6 C 0,0 km/h (0 Bft)
06.03.2015 04:45 -3,0 C 1,1 C 80 % 80 % 1035,5 hPa 0,0 l/m 0,0 km/h (0 Bft) W 270 -6,0 C -3,7 C 0,0 km/h (0 Bft)
06.03.2015 04:50 -3,0 C 1,1 C 80 % 80 % 1035,5 hPa 0,0 l/m 0,0 km/h (0 Bft) N-NW 337 -6,0 C -3,8 C 0,0 km/h (0 Bft)
06.03.2015 04:55 -3,0 C 1,1 C 80 % 80 % 1035,8 hPa 0,0 l/m 0,0 km/h (0 Bft) N-NW 337 -6,0 C -3,8 C 0,0 km/h (0 Bft)
06.03.2015 05:00 -3,0 C 1,1 C 80 % 80 % 1035,8 hPa 0,0 l/m 0,0 km/h (0 Bft) N-NW 337 -6,0 C -3,9 C 0,0 km/h (0 Bft)
06.03.2015 05:05 -3,0 C 1,1 C 80 % 80 % 1035,8 hPa 0,0 l/m 0,0 km/h (0 Bft) NW 315 -6,0 C -3,8 C 0,0 km/h (0 Bft)
06.03.2015 05:10 -3,0 C 1,2 C 80 % 80 % 1035,8 hPa 0,0 l/m 0,0 km/h (0 Bft) N-NW 337 -6,0 C -4,1 C 0,0 km/h (0 Bft)
06.03.2015 05:15 -3,1 C 1,2 C 80 % 80 % 1035,7 hPa 0,0 l/m 0,0 km/h (0 Bft) NO 45 -6,0 C -4,2 C 0,0 km/h (0 Bft)
06.03.2015 05:20 -3,1 C 1,2 C 80 % 80 % 1035,7 hPa 0,0 l/m 0,0 km/h (0 Bft) O-SO 112 -6,0 C -4,4 C 0,0 km/h (0 Bft)
06.03.2015 05:25 -3,3 C 1,2 C 80 % 80 % 1035,7 hPa 0,0 l/m 0,0 km/h (0 Bft) SO 135 -6,2 C -4,4 C 0,0 km/h (0 Bft)
06.03.2015 05:30 -3,5 C 1,2 C 80 % 80 % 1035,7 hPa 0,0 l/m 0,0 km/h (0 Bft) SO 135 -6,4 C -4,6 C 0,0 km/h (0 Bft)
06.03.2015 05:35 -3,7 C 1,2 C 80 % 80 % 1035,6 hPa 0,0 l/m 0,0 km/h (0 Bft) S-SO 157 -6,6 C -4,8 C 0,0 km/h (0 Bft)
06.03.2015 05:40 -3,9 C 1,2 C 80 % 80 % 1035,6 hPa 0,0 l/m 0,0 km/h (0 Bft) SO 135 -6,8 C -5,2 C 0,0 km/h (0 Bft)
06.03.2015 05:45 -4,1 C 1,1 C 80 % 80 % 1035,6 hPa 0,0 l/m 0,0 km/h (0 Bft) S-SO 157 -7,0 C -5,4 C 0,0 km/h (0 Bft)
06.03.2015 05:50 -4,1 C 1,1 C 80 % 80 % 1035,6 hPa 0,0 l/m 0,0 km/h (0 Bft) O-NO 67 -7,0 C -5,8 C 0,0 km/h (0 Bft)
06.03.2015 05:55 -4,3 C 1,1 C 80 % 80 % 1035,6 hPa 0,0 l/m 0,0 km/h (0 Bft) O-SO 112 -7,2 C -5,9 C 0,0 km/h (0 Bft)
06.03.2015 06:00 -4,5 C 1,1 C 80 % 80 % 1035,6 hPa 0,0 l/m 0,0 km/h (0 Bft) N 360 -7,4 C -6,1 C 0,0 km/h (0 Bft)
06.03.2015 06:05 -4,9 C 1,1 C 80 % 80 % 1035,6 hPa 0,0 l/m 0,0 km/h (0 Bft) N-NO 22 -7,8 C -6,3 C 0,0 km/h (0 Bft)
06.03.2015 06:10 -5,3 C 1,1 C 79 % 79 % 1035,6 hPa 0,0 l/m 0,0 km/h (0 Bft) N 360 -8,4 C -6,7 C 0,0 km/h (0 Bft)
06.03.2015 06:15 -5,3 C 1,1 C 80 % 80 % 1035,6 hPa 0,0 l/m 0,0 km/h (0 Bft) SW 225 -8,2 C -7,1 C 0,0 km/h (0 Bft)
06.03.2015 06:20 -5,3 C 1,1 C 80 % 80 % 1035,6 hPa 0,0 l/m 0,0 km/h (0 Bft) W 270 -8,2 C -7,2 C 0,0 km/h (0 Bft)
06.03.2015 06:25 -5,7 C 1,1 C 80 % 80 % 1035,6 hPa 0,0 l/m 0,0 km/h (0 Bft) N-NW 337 -8,6 C -7,2 C 0,0 km/h (0 Bft)
06.03.2015 06:30 -5,9 C 1,1 C 80 % 80 % 1035,6 hPa 0,0 l/m 0,0 km/h (0 Bft) N-NW 337 -8,8 C -7,6 C 0,0 km/h (0 Bft)
06.03.2015 06:35 -6,1 C 1,1 C 80 % 80 % 1035,7 hPa 0,0 l/m 0,0 km/h (0 Bft) O-NO 67 -9,0 C -7,7 C 0,0 km/h (0 Bft)
06.03.2015 06:40 -6,4 C 1,1 C 80 % 80 % 1035,7 hPa 0,0 l/m 0,0 km/h (0 Bft) N-NO 22 -9,3 C -7,8 C 0,0 km/h (0 Bft)
06.03.2015 06:45 -6,5 C 1,1 C 80 % 80 % 1035,7 hPa 0,0 l/m 0,0 km/h (0 Bft) O-NO 67 -9,4 C -8,0 C 0,0 km/h (0 Bft)
06.03.2015 06:50 -7,1 C 1,1 C 80 % 80 % 1035,7 hPa 0,0 l/m 0,0 km/h (0 Bft) O-NO 67 -9,9 C -8,1 C 0,0 km/h (0 Bft)
06.03.2015 06:55 -7,0 C 1,1 C 80 % 80 % 1035,7 hPa 0,0 l/m 0,0 km/h (0 Bft) O-NO 67 -9,9 C -8,1 C 0,0 km/h (0 Bft)
06.03.2015 07:00 -7,5 C 1,1 C 79 % 79 % 1035,7 hPa 0,0 l/m 0,0 km/h (0 Bft) O-NO 67 -10,5 C -8,2 C 0,0 km/h (0 Bft)
06.03.2015 07:05 -7,6 C 1,1 C 79 % 79 % 1035,7 hPa 0,0 l/m 0,0 km/h (0 Bft) O-NO 67 -10,6 C -8,3 C 0,0 km/h (0 Bft)
06.03.2015 07:10 -7,5 C 1,1 C 79 % 79 % 1035,7 hPa 0,0 l/m 0,0 km/h (0 Bft) N-NW 337 -10,5 C -8,2 C 0,0 km/h (0 Bft)
06.03.2015 07:15 -7,4 C 1,1 C 79 % 79 % 1035,8 hPa 0,0 l/m 0,0 km/h (0 Bft) N-NO 22 -10,4 C -8,2 C 0,0 km/h (0 Bft)
06.03.2015 07:20 -7,3 C 1,1 C 79 % 79 % 1035,8 hPa 0,0 l/m 0,0 km/h (0 Bft) N-NO 22 -10,3 C -8,1 C 0,0 km/h (0 Bft)
06.03.2015 07:25 -7,3 C 1,1 C 79 % 79 % 1035,8 hPa 0,0 l/m 0,0 km/h (0 Bft) N-NO 22 -10,3 C -8,1 C 0,0 km/h (0 Bft)
06.03.2015 07:30 -6,9 C 1,1 C 80 % 80 % 1035,8 hPa 0,0 l/m 0,0 km/h (0 Bft) NW 315 -9,8 C -8,0 C 0,0 km/h (0 Bft)
06.03.2015 07:35 -7,1 C 1,1 C 80 % 80 % 1036,0 hPa 0,0 l/m 0,0 km/h (0 Bft) O-NO 67 -9,9 C -7,9 C 0,0 km/h (0 Bft)
06.03.2015 07:40 -7,1 C 1,1 C 80 % 80 % 1036,0 hPa 0,0 l/m 0,0 km/h (0 Bft) NO 45 -9,9 C -7,8 C 0,0 km/h (0 Bft)
06.03.2015 07:45 -6,9 C 1,1 C 80 % 80 % 1036,0 hPa 0,0 l/m 0,0 km/h (0 Bft) N-NO 22 -9,8 C -7,6 C 0,0 km/h (0 Bft)
06.03.2015 07:50 -7,0 C 1,1 C 80 % 80 % 1036,0 hPa 0,0 l/m 0,0 km/h (0 Bft) NO 45 -9,9 C -7,5 C 0,0 km/h (0 Bft)
06.03.2015 07:55 -6,8 C 1,1 C 80 % 80 % 1035,9 hPa 0,0 l/m 0,0 km/h (0 Bft) S-SO 157 -9,7 C -7,4 C 0,0 km/h (0 Bft)
06.03.2015 08:00 -6,2 C 1,1 C 80 % 80 % 1035,9 hPa 0,0 l/m 0,0 km/h (0 Bft) O-NO 67 -9,1 C -7,1 C 0,0 km/h (0 Bft)
06.03.2015 08:05 -6,3 C 1,1 C 80 % 80 % 1035,9 hPa 0,0 l/m 0,0 km/h (0 Bft) O-NO 67 -9,2 C -6,8 C 0,0 km/h (0 Bft)
06.03.2015 08:10 -6,4 C 1,1 C 80 % 80 % 1035,9 hPa 0,0 l/m 0,0 km/h (0 Bft) S-SO 157 -9,3 C -6,7 C 0,0 km/h (0 Bft)
06.03.2015 08:15 -6,2 C 1,1 C 80 % 80 % 1036,0 hPa 0,0 l/m 0,0 km/h (0 Bft) S-SO 157 -9,1 C -6,6 C 0,0 km/h (0 Bft)
06.03.2015 08:20 -5,1 C 1,1 C 81 % 81 % 1036,0 hPa 0,0 l/m 1,3 km/h (1 Bft) S 180 -7,8 C -6,2 C 2,4 km/h (1 Bft)
06.03.2015 08:25 -4,8 C 1,1 C 81 % 81 % 1036,0 hPa 0,0 l/m 2,4 km/h (1 Bft) S 180 -7,5 C -6,2 C 2,3 km/h (1 Bft)
06.03.2015 08:30 -4,6 C 1,1 C 81 % 81 % 1036,0 hPa 0,0 l/m 2,9 km/h (1 Bft) SO 135 -7,4 C -6,2 C 6,1 km/h (2 Bft)
06.03.2015 08:35 -4,4 C 1,1 C 82 % 82 % 1036,5 hPa 0,0 l/m 1,8 km/h (1 Bft) S-SW 202 -7,0 C -5,1 C 0,0 km/h (0 Bft)
06.03.2015 08:40 -4,2 C 1,1 C 82 % 82 % 1036,5 hPa 0,0 l/m 0,3 km/h (0 Bft) S-SO 157 -6,8 C -4,9 C 0,0 km/h (0 Bft)
06.03.2015 08:45 -4,0 C 1,1 C 82 % 82 % 1036,5 hPa 0,0 l/m 0,3 km/h (0 Bft) S-SO 157 -6,6 C -4,7 C 0,0 km/h (0 Bft)
06.03.2015 08:50 -3,7 C 1,1 C 82 % 82 % 1036,5 hPa 0,0 l/m 0,0 km/h (0 Bft) S-SO 157 -6,3 C -4,4 C 0,0 km/h (0 Bft)
06.03.2015 08:55 -3,5 C 1,1 C 82 % 82 % 1036,5 hPa 0,0 l/m 0,2 km/h (0 Bft) S-SO 157 -6,1 C -4,3 C 0,0 km/h (0 Bft)
06.03.2015 09:00 -2,8 C 1,0 C 83 % 83 % 1036,5 hPa 0,0 l/m 0,2 km/h (0 Bft) S-SO 157 -5,3 C -1,7 C 0,0 km/h (0 Bft)
06.03.2015 09:05 -2,5 C 1,1 C 83 % 83 % 1036,5 hPa 0,0 l/m 0,2 km/h (0 Bft) SO 135 -5,0 C 0,5 C 0,0 km/h (0 Bft)
06.03.2015 09:10 -1,7 C 1,1 C 83 % 83 % 1036,5 hPa 0,0 l/m 0,2 km/h (0 Bft) S-SO 157 -4,2 C 1,8 C 1,8 km/h (1 Bft)
06.03.2015 09:15 -1,0 C 1,1 C 83 % 83 % 1036,9 hPa 0,0 l/m 0,2 km/h (0 Bft) S-SO 157 -3,5 C 2,6 C 0,0 km/h (0 Bft)
06.03.2015 09:20 -0,1 C 1,1 C 82 % 82 % 1036,9 hPa 0,0 l/m 0,3 km/h (0 Bft) S-SO 157 -2,8 C 4,0 C 0,0 km/h (0 Bft)
06.03.2015 09:25 0,4 C 1,1 C 81 % 81 % 1036,9 hPa 0,0 l/m 0,3 km/h (0 Bft) S-SO 157 -2,5 C 4,9 C 0,0 km/h (0 Bft)
06.03.2015 09:30 0,7 C 1,1 C 79 % 79 % 1036,9 hPa 0,0 l/m 0,0 km/h (0 Bft) SO 135 -2,5 C 6,2 C 0,0 km/h (0 Bft)
06.03.2015 09:35 1,1 C 1,1 C 79 % 79 % 1037,2 hPa 0,0 l/m 0,3 km/h (0 Bft) SW 225 -2,1 C 6,8 C 0,0 km/h (0 Bft)
06.03.2015 09:40 1,9 C 1,1 C 78 % 78 % 1037,2 hPa 0,0 l/m 0,3 km/h (0 Bft) O-NO 67 -1,5 C 6,9 C 0,0 km/h (0 Bft)
06.03.2015 09:45 2,2 C 1,1 C 78 % 78 % 1037,2 hPa 0,0 l/m 0,0 km/h (0 Bft) O-NO 67 -1,2 C 7,1 C 0,0 km/h (0 Bft)
06.03.2015 09:50 2,7 C 1,1 C 77 % 77 % 1037,2 hPa 0,0 l/m 0,0 km/h (0 Bft) SO 135 -0,9 C 6,8 C 0,0 km/h (0 Bft)
06.03.2015 09:55 3,5 C 1,1 C 77 % 77 % 1038,1 hPa 0,0 l/m 0,0 km/h (0 Bft) O-NO 67 -0,1 C 7,4 C 0,0 km/h (0 Bft)
06.03.2015 10:00 3,8 C 1,1 C 76 % 76 % 1038,1 hPa 0,0 l/m 0,0 km/h (0 Bft) N-NW 337 -0,0 C 10,8 C 0,0 km/h (0 Bft)
06.03.2015 10:05 4,3 C 1,1 C 75 % 75 % 1038,1 hPa 0,0 l/m 0,0 km/h (0 Bft) S-SO 157 0,3 C 12,1 C 0,0 km/h (0 Bft)
06.03.2015 10:10 4,5 C 1,1 C 74 % 74 % 1038,1 hPa 0,0 l/m 0,3 km/h (0 Bft) W-NW 292 0,3 C 12,9 C 0,0 km/h (0 Bft)
06.03.2015 10:15 5,5 C 1,1 C 73 % 73 % 1038,9 hPa 0,0 l/m 0,5 km/h (0 Bft) NW 315 1,1 C 13,3 C 2,7 km/h (1 Bft)
06.03.2015 10:20 6,0 C 1,1 C 70 % 70 % 1038,9 hPa 0,0 l/m 0,5 km/h (0 Bft) W-NW 292 1,0 C 13,4 C 0,0 km/h (0 Bft)
06.03.2015 10:25 6,1 C 1,1 C 67 % 67 % 1038,9 hPa 0,0 l/m 1,0 km/h (0 Bft) W 270 0,4 C 13,4 C 2,6 km/h (1 Bft)
06.03.2015 10:30 6,6 C 1,1 C 64 % 64 % 1038,9 hPa 0,0 l/m 0,8 km/h (0 Bft) W-NW 292 0,3 C 13,4 C 2,1 km/h (1 Bft)
06.03.2015 10:35 6,2 C 1,1 C 61 % 61 % 1039,2 hPa 0,0 l/m 1,3 km/h (1 Bft) W 270 -0,7 C 13,3 C 0,0 km/h (0 Bft)
06.03.2015 10:40 6,4 C 1,1 C 59 % 59 % 1039,2 hPa 0,0 l/m 1,4 km/h (1 Bft) N-NW 337 -1,0 C 13,5 C 2,4 km/h (1 Bft)
06.03.2015 10:45 5,9 C 1,1 C 59 % 59 % 1039,2 hPa 0,0 l/m 1,1 km/h (1 Bft) W-NW 292 -1,5 C 13,5 C 4,7 km/h (1 Bft)
06.03.2015 10:50 7,2 C 1,1 C 58 % 58 % 1039,2 hPa 0,0 l/m 1,0 km/h (0 Bft) W-NW 292 -0,5 C 13,1 C 1,9 km/h (1 Bft)
06.03.2015 10:55 8,4 C 1,1 C 58 % 58 % 1040,0 hPa 0,0 l/m 0,6 km/h (0 Bft) NW 315 0,6 C 14,1 C 0,0 km/h (0 Bft)
06.03.2015 11:00 9,1 C 1,1 C 56 % 56 % 1040,0 hPa 0,0 l/m 0,5 km/h (0 Bft) O-NO 67 0,8 C 15,5 C 1,8 km/h (1 Bft)
06.03.2015 11:05 9,6 C 1,1 C 56 % 56 % 1040,0 hPa 0,0 l/m 0,6 km/h (0 Bft) W-SW 247 1,3 C 15,9 C 1,8 km/h (1 Bft)
06.03.2015 11:10 10,0 C 1,2 C 55 % 55 % 1040,0 hPa 0,0 l/m 0,3 km/h (0 Bft) W-SW 247 1,4 C 16,7 C 0,0 km/h (0 Bft)
06.03.2015 11:15 9,6 C 1,2 C 49 % 49 % 1040,1 hPa 0,0 l/m 1,1 km/h (1 Bft) W 270 -0,6 C 16,3 C 2,4 km/h (1 Bft)
06.03.2015 11:20 8,0 C 1,1 C 51 % 51 % 1040,1 hPa 0,0 l/m 1,3 km/h (1 Bft) W 270 -1,5 C 15,3 C 2,7 km/h (1 Bft)
06.03.2015 11:25 7,4 C 1,1 C 51 % 51 % 1040,1 hPa 0,0 l/m 0,6 km/h (0 Bft) W-SW 247 -2,1 C 13,7 C 2,4 km/h (1 Bft)
06.03.2015 11:30 6,9 C 1,1 C 51 % 51 % 1040,1 hPa 0,0 l/m 1,1 km/h (1 Bft) W 270 -2,5 C 11,9 C 0,0 km/h (0 Bft)
06.03.2015 11:35 7,8 C 1,1 C 52 % 52 % 1039,6 hPa 0,0 l/m 1,1 km/h (1 Bft) NW 315 -1,4 C 11,3 C 0,0 km/h (0 Bft)
06.03.2015 11:40 9,5 C 1,1 C 52 % 52 % 1039,6 hPa 0,0 l/m 0,0 km/h (0 Bft) NW 315 0,1 C 13,9 C 0,0 km/h (0 Bft)
06.03.2015 11:45 9,7 C 1,1 C 47 % 47 % 1039,6 hPa 0,0 l/m 1,0 km/h (0 Bft) W-SW 247 -1,1 C 14,4 C 4,3 km/h (1 Bft)
06.03.2015 11:50 10,3 C 1,2 C 46 % 46 % 1039,6 hPa 0,0 l/m 1,0 km/h (0 Bft) W-SW 247 -0,8 C 15,2 C 2,4 km/h (1 Bft)
06.03.2015 11:55 10,3 C 1,2 C 45 % 45 % 1039,6 hPa 0,0 l/m 1,0 km/h (0 Bft) W 270 -1,1 C 15,4 C 4,0 km/h (1 Bft)
06.03.2015 12:00 8,7 C 1,0 C 44 % 44 % 1039,6 hPa 0,0 l/m 1,4 km/h (1 Bft) SW 225 -2,9 C 15,5 C 0,0 km/h (0 Bft)
06.03.2015 12:05 7,5 C 1,1 C 43 % 43 % 1039,6 hPa 0,0 l/m 1,6 km/h (1 Bft) W 270 -4,3 C 15,1 C 1,8 km/h (1 Bft)
06.03.2015 12:10 9,9 C 1,1 C 45 % 45 % 1039,6 hPa 0,0 l/m 0,6 km/h (0 Bft) W-SW 247 -1,5 C 14,4 C 2,7 km/h (1 Bft)
06.03.2015 12:15 9,7 C 1,1 C 44 % 44 % 1038,1 hPa 0,0 l/m 1,0 km/h (0 Bft) NW 315 -2,0 C 15,1 C 2,1 km/h (1 Bft)
06.03.2015 12:20 9,1 C 1,1 C 43 % 43 % 1038,1 hPa 0,0 l/m 2,1 km/h (1 Bft) NW 315 -2,8 C 15,0 C 0,0 km/h (0 Bft)
06.03.2015 12:25 9,7 C 1,1 C 44 % 44 % 1038,1 hPa 0,0 l/m 1,8 km/h (1 Bft) N-NW 337 -2,0 C 15,5 C 3,4 km/h (1 Bft)
06.03.2015 12:30 9,2 C 1,1 C 40 % 40 % 1038,1 hPa 0,0 l/m 2,3 km/h (1 Bft) NW 315 -3,7 C 14,7 C 4,2 km/h (1 Bft)
06.03.2015 12:35 9,7 C 1,1 C 41 % 41 % 1038,6 hPa 0,0 l/m 2,7 km/h (1 Bft) W 270 -2,9 C 14,8 C 6,9 km/h (2 Bft)
06.03.2015 12:40 9,9 C 1,1 C 42 % 42 % 1038,6 hPa 0,0 l/m 1,8 km/h (1 Bft) W 270 -2,4 C 15,0 C 2,3 km/h (1 Bft)
06.03.2015 12:45 10,1 C 1,1 C 41 % 41 % 1038,6 hPa 0,0 l/m 1,9 km/h (1 Bft) N-NO 22 -2,5 C 15,2 C 4,0 km/h (1 Bft)
06.03.2015 12:50 10,4 C 1,1 C 42 % 42 % 1038,6 hPa 0,0 l/m 1,3 km/h (1 Bft) N 360 -1,9 C 15,5 C 2,4 km/h (1 Bft)
06.03.2015 12:55 8,8 C 1,0 C 39 % 39 % 1038,9 hPa 0,0 l/m 2,6 km/h (1 Bft) N-NO 22 -4,4 C 15,1 C 7,2 km/h (2 Bft)
06.03.2015 13:00 7,9 C 1,1 C 39 % 39 % 1038,9 hPa 0,0 l/m 4,3 km/h (1 Bft) N-NO 22 -5,2 C 13,3 C 11,9 km/h (2 Bft)
06.03.2015 13:05 7,9 C 1,1 C 39 % 39 % 1038,9 hPa 0,0 l/m 5,0 km/h (1 Bft) N 360 -5,2 C 12,8 C 5,6 km/h (1 Bft)
06.03.2015 13:10 8,4 C 1,1 C 39 % 39 % 1038,9 hPa 0,0 l/m 4,2 km/h (1 Bft) NO 45 -4,7 C 12,7 C 2,9 km/h (1 Bft)
06.03.2015 13:15 9,0 C 1,1 C 40 % 40 % 1038,8 hPa 0,0 l/m 3,9 km/h (1 Bft) NO 45 -3,9 C 12,7 C 2,9 km/h (1 Bft)
06.03.2015 13:20 8,5 C 1,1 C 40 % 40 % 1038,8 hPa 0,0 l/m 3,4 km/h (1 Bft) O-NO 67 -4,3 C 12,9 C 2,6 km/h (1 Bft)
06.03.2015 13:25 8,4 C 1,1 C 39 % 39 % 1038,8 hPa 0,0 l/m 3,4 km/h (1 Bft) N-NO 22 -4,7 C 12,3 C 4,0 km/h (1 Bft)
06.03.2015 13:30 8,7 C 1,1 C 41 % 41 % 1038,8 hPa 0,0 l/m 4,2 km/h (1 Bft) NO 45 -3,8 C 11,0 C 5,0 km/h (1 Bft)
06.03.2015 13:35 8,4 C 1,1 C 39 % 39 % 1038,8 hPa 0,0 l/m 4,2 km/h (1 Bft) W-SW 247 -4,7 C 10,2 C 5,1 km/h (1 Bft)
06.03.2015 13:40 9,6 C 1,1 C 41 % 41 % 1038,8 hPa 0,0 l/m 3,2 km/h (1 Bft) N-NO 22 -3,0 C 9,8 C 3,5 km/h (1 Bft)
06.03.2015 13:45 8,0 C 1,1 C 39 % 39 % 1038,8 hPa 0,0 l/m 3,5 km/h (1 Bft) O-NO 67 -5,1 C 9,3 C 6,1 km/h (2 Bft)
06.03.2015 13:50 8,9 C 1,1 C 40 % 40 % 1038,8 hPa 0,0 l/m 4,0 km/h (1 Bft) N-NO 22 -3,9 C 9,1 C 3,2 km/h (1 Bft)
06.03.2015 13:55 9,0 C 1,1 C 39 % 39 % 1038,4 hPa 0,0 l/m 3,4 km/h (1 Bft) NO 45 -4,2 C 9,6 C 3,5 km/h (1 Bft)
06.03.2015 14:00 8,5 C 1,1 C 39 % 39 % 1038,4 hPa 0,0 l/m 3,4 km/h (1 Bft) N-NO 22 -4,6 C 10,4 C 3,1 km/h (1 Bft)
06.03.2015 14:05 8,9 C 1,1 C 40 % 40 % 1038,4 hPa 0,0 l/m 3,7 km/h (1 Bft) NO 45 -3,9 C 10,8 C 1,8 km/h (1 Bft)
06.03.2015 14:10 10,4 C 1,1 C 41 % 41 % 1038,4 hPa 0,0 l/m 2,1 km/h (1 Bft) N-NO 22 -2,3 C 12,8 C 3,4 km/h (1 Bft)
06.03.2015 14:15 9,7 C 1,1 C 41 % 41 % 1037,8 hPa 0,0 l/m 1,6 km/h (1 Bft) N 360 -2,9 C 13,3 C 2,3 km/h (1 Bft)
06.03.2015 14:20 9,6 C 1,1 C 40 % 40 % 1037,8 hPa 0,0 l/m 2,4 km/h (1 Bft) N-NW 337 -3,3 C 13,6 C 1,9 km/h (1 Bft)
06.03.2015 14:25 9,3 C 1,1 C 39 % 39 % 1037,8 hPa 0,0 l/m 2,6 km/h (1 Bft) N-NW 337 -3,9 C 13,6 C 3,9 km/h (1 Bft)
06.03.2015 14:30 9,6 C 1,1 C 40 % 40 % 1037,8 hPa 0,0 l/m 3,1 km/h (1 Bft) NW 315 -3,3 C 13,5 C 5,3 km/h (1 Bft)
06.03.2015 14:35 9,4 C 1,1 C 40 % 40 % 1037,4 hPa 0,0 l/m 3,2 km/h (1 Bft) NO 45 -3,5 C 13,1 C 4,5 km/h (1 Bft)
06.03.2015 14:40 9,0 C 1,1 C 40 % 40 % 1037,4 hPa 0,0 l/m 2,7 km/h (1 Bft) S-SW 202 -3,9 C 12,8 C 1,9 km/h (1 Bft)
06.03.2015 14:45 10,1 C 1,1 C 41 % 41 % 1037,4 hPa 0,0 l/m 2,6 km/h (1 Bft) NW 315 -2,5 C 13,2 C 4,8 km/h (1 Bft)
06.03.2015 14:50 11,1 C 1,1 C 42 % 42 % 1037,4 hPa 0,0 l/m 1,0 km/h (0 Bft) N-NO 22 -1,3 C 13,7 C 0,0 km/h (0 Bft)
06.03.2015 14:55 10,5 C 1,1 C 41 % 41 % 1036,8 hPa 0,0 l/m 1,4 km/h (1 Bft) W-SW 247 -2,2 C 14,4 C 3,9 km/h (1 Bft)
06.03.2015 15:00 10,4 C 1,1 C 41 % 41 % 1036,8 hPa 0,0 l/m 1,1 km/h (1 Bft) W-SW 247 -2,3 C 14,6 C 0,0 km/h (0 Bft)
06.03.2015 15:05 10,1 C 1,1 C 41 % 41 % 1036,8 hPa 0,0 l/m 1,0 km/h (0 Bft) N-NW 337 -2,5 C 14,7 C 1,9 km/h (1 Bft)
06.03.2015 15:10 9,3 C 1,1 C 41 % 41 % 1036,8 hPa 0,0 l/m 1,1 km/h (1 Bft) N-NO 22 -3,3 C 14,6 C 1,6 km/h (1 Bft)
06.03.2015 15:15 9,3 C 1,1 C 41 % 41 % 1036,6 hPa 0,0 l/m 1,6 km/h (1 Bft) NW 315 -3,3 C 14,5 C 1,9 km/h (1 Bft)
06.03.2015 15:20 8,9 C 1,1 C 41 % 41 % 1036,6 hPa 0,0 l/m 1,4 km/h (1 Bft) NW 315 -3,6 C 14,1 C 3,2 km/h (1 Bft)
06.03.2015 15:25 8,8 C 1,1 C 41 % 41 % 1036,6 hPa 0,0 l/m 1,6 km/h (1 Bft) N-NW 337 -3,7 C 13,6 C 2,4 km/h (1 Bft)
06.03.2015 15:30 7,9 C 1,1 C 41 % 41 % 1036,6 hPa 0,0 l/m 2,1 km/h (1 Bft) N 360 -4,5 C 12,9 C 3,9 km/h (1 Bft)
06.03.2015 15:35 7,5 C 1,1 C 40 % 40 % 1036,1 hPa 0,0 l/m 2,4 km/h (1 Bft) N-NW 337 -5,2 C 12,4 C 3,2 km/h (1 Bft)
06.03.2015 15:40 7,2 C 1,1 C 41 % 41 % 1036,1 hPa 0,0 l/m 2,6 km/h (1 Bft) O-NO 67 -5,2 C 12,1 C 6,0 km/h (2 Bft)
06.03.2015 15:45 6,3 C 1,1 C 41 % 41 % 1036,1 hPa 0,0 l/m 2,4 km/h (1 Bft) O 90 -6,0 C 11,2 C 1,6 km/h (1 Bft)
06.03.2015 15:50 6,2 C 1,1 C 42 % 42 % 1036,1 hPa 0,0 l/m 2,1 km/h (1 Bft) NO 45 -5,7 C 9,8 C 0,0 km/h (0 Bft)
06.03.2015 15:55 5,8 C 1,1 C 43 % 43 % 1035,8 hPa 0,0 l/m 1,1 km/h (1 Bft) O-NO 67 -5,8 C 9,0 C 2,3 km/h (1 Bft)
06.03.2015 16:00 5,2 C 1,1 C 44 % 44 % 1035,8 hPa 0,0 l/m 1,0 km/h (0 Bft) O-NO 67 -6,0 C 7,1 C 1,6 km/h (1 Bft)
06.03.2015 16:05 4,9 C 1,1 C 44 % 44 % 1035,8 hPa 0,0 l/m 1,3 km/h (1 Bft) N-NO 22 -6,3 C 6,3 C 3,9 km/h (1 Bft)
06.03.2015 16:10 4,6 C 1,1 C 45 % 45 % 1035,8 hPa 0,0 l/m 0,8 km/h (0 Bft) N-NO 22 -6,3 C 5,4 C 0,0 km/h (0 Bft)
06.03.2015 16:15 4,6 C 1,1 C 46 % 46 % 1035,5 hPa 0,0 l/m 0,6 km/h (0 Bft) O-NO 67 -6,0 C 5,0 C 0,0 km/h (0 Bft)
06.03.2015 16:20 4,6 C 1,1 C 46 % 46 % 1035,5 hPa 0,0 l/m 0,5 km/h (0 Bft) O-NO 67 -6,0 C 5,6 C 0,0 km/h (0 Bft)
06.03.2015 16:25 4,5 C 1,1 C 46 % 46 % 1035,5 hPa 0,0 l/m 0,6 km/h (0 Bft) O-NO 67 -6,1 C 5,9 C 0,0 km/h (0 Bft)
06.03.2015 16:30 4,4 C 1,1 C 47 % 47 % 1035,5 hPa 0,0 l/m 0,3 km/h (0 Bft) N-NO 22 -5,9 C 5,6 C 0,0 km/h (0 Bft)
06.03.2015 16:35 4,3 C 1,1 C 47 % 47 % 1035,1 hPa 0,0 l/m 0,0 km/h (0 Bft) N 360 -6,0 C 5,6 C 0,0 km/h (0 Bft)
06.03.2015 16:40 4,2 C 1,1 C 47 % 47 % 1035,1 hPa 0,0 l/m 0,2 km/h (0 Bft) N-NO 22 -6,1 C 6,4 C 0,0 km/h (0 Bft)
06.03.2015 16:45 4,3 C 1,1 C 47 % 47 % 1035,1 hPa 0,0 l/m 0,2 km/h (0 Bft) NO 45 -6,0 C 6,3 C 0,0 km/h (0 Bft)
06.03.2015 16:50 3,7 C 1,1 C 48 % 48 % 1035,1 hPa 0,0 l/m 0,0 km/h (0 Bft) NO 45 -6,3 C 5,8 C 0,0 km/h (0 Bft)
06.03.2015 16:55 3,5 C 1,1 C 48 % 48 % 1035,0 hPa 0,0 l/m 0,5 km/h (0 Bft) NO 45 -6,5 C 5,1 C 3,1 km/h (1 Bft)
06.03.2015 17:00 3,3 C 1,1 C 48 % 48 % 1035,0 hPa 0,0 l/m 0,6 km/h (0 Bft) O-NO 67 -6,6 C 4,1 C 0,0 km/h (0 Bft)
06.03.2015 17:05 3,2 C 1,1 C 49 % 49 % 1035,0 hPa 0,0 l/m 0,6 km/h (0 Bft) O 90 -6,5 C 3,8 C 0,0 km/h (0 Bft)
06.03.2015 17:10 3,1 C 1,1 C 49 % 49 % 1035,0 hPa 0,0 l/m 0,2 km/h (0 Bft) O 90 -6,6 C 3,7 C 0,0 km/h (0 Bft)
06.03.2015 17:15 3,0 C 1,1 C 49 % 49 % 1035,0 hPa 0,0 l/m 0,0 km/h (0 Bft) O 90 -6,6 C 3,5 C 0,0 km/h (0 Bft)
06.03.2015 17:20 2,8 C 1,1 C 49 % 49 % 1035,0 hPa 0,0 l/m 0,0 km/h (0 Bft) O 90 -6,8 C 3,0 C 0,0 km/h (0 Bft)
06.03.2015 17:25 2,8 C 1,1 C 49 % 49 % 1035,0 hPa 0,0 l/m 0,2 km/h (0 Bft) O-SO 112 -6,8 C 2,8 C 0,0 km/h (0 Bft)
06.03.2015 17:30 2,7 C 1,1 C 49 % 49 % 1035,0 hPa 0,0 l/m 0,2 km/h (0 Bft) O-SO 112 -6,9 C 2,5 C 0,0 km/h (0 Bft)
06.03.2015 17:35 2,5 C 1,1 C 49 % 49 % 1035,1 hPa 0,0 l/m 0,5 km/h (0 Bft) O-SO 112 -7,1 C 2,3 C 0,0 km/h (0 Bft)
06.03.2015 17:40 2,3 C 1,1 C 50 % 50 % 1035,1 hPa 0,0 l/m 0,6 km/h (0 Bft) O-SO 112 -7,0 C 2,0 C 1,9 km/h (1 Bft)
06.03.2015 17:45 2,1 C 1,1 C 51 % 51 % 1035,1 hPa 0,0 l/m 1,1 km/h (1 Bft) O-SO 112 -7,0 C 1,9 C 2,7 km/h (1 Bft)
06.03.2015 17:50 1,8 C 1,2 C 52 % 52 % 1035,1 hPa 0,0 l/m 1,1 km/h (1 Bft) O-SO 112 -7,0 C 1,4 C 0,0 km/h (0 Bft)
06.03.2015 17:55 1,5 C 1,2 C 52 % 52 % 1034,6 hPa 0,0 l/m 0,6 km/h (0 Bft) O-SO 112 -7,3 C 1,2 C 0,0 km/h (0 Bft)
06.03.2015 18:00 1,0 C 1,1 C 53 % 53 % 1034,6 hPa 0,0 l/m 0,8 km/h (0 Bft) O-SO 112 -7,5 C 0,5 C 2,1 km/h (1 Bft)
06.03.2015 18:05 0,8 C 1,1 C 54 % 54 % 1034,6 hPa 0,0 l/m 1,3 km/h (1 Bft) O-SO 112 -7,4 C 0,1 C 2,1 km/h (1 Bft)
06.03.2015 18:10 0,4 C 1,1 C 55 % 55 % 1034,6 hPa 0,0 l/m 1,8 km/h (1 Bft) O-SO 112 -7,6 C -0,5 C 2,4 km/h (1 Bft)
06.03.2015 18:15 0,3 C 1,1 C 55 % 55 % 1035,1 hPa 0,0 l/m 1,9 km/h (1 Bft) O-SO 112 -7,7 C -0,7 C 2,7 km/h (1 Bft)
06.03.2015 18:20 -0,1 C 1,1 C 56 % 56 % 1035,1 hPa 0,0 l/m 2,4 km/h (1 Bft) O-SO 112 -7,8 C -1,2 C 2,4 km/h (1 Bft)
06.03.2015 18:25 -0,2 C 1,1 C 56 % 56 % 1035,1 hPa 0,0 l/m 2,6 km/h (1 Bft) O-SO 112 -7,9 C -1,6 C 3,4 km/h (1 Bft)
06.03.2015 18:30 -0,4 C 1,1 C 57 % 57 % 1035,1 hPa 0,0 l/m 2,6 km/h (1 Bft) O-SO 112 -7,9 C -1,9 C 2,4 km/h (1 Bft)
06.03.2015 18:35 -0,9 C 1,1 C 57 % 57 % 1035,0 hPa 0,0 l/m 2,1 km/h (1 Bft) O-SO 112 -8,3 C -1,8 C 0,0 km/h (0 Bft)
06.03.2015 18:40 -1,1 C 1,1 C 58 % 58 % 1035,0 hPa 0,0 l/m 1,8 km/h (1 Bft) O-SO 112 -8,3 C -2,2 C 3,1 km/h (1 Bft)
06.03.2015 18:45 -1,1 C 1,1 C 58 % 58 % 1035,0 hPa 0,0 l/m 2,1 km/h (1 Bft) O-SO 112 -8,3 C -2,4 C 2,4 km/h (1 Bft)
06.03.2015 18:50 -1,7 C 1,1 C 59 % 59 % 1035,0 hPa 0,0 l/m 1,4 km/h (1 Bft) O-SO 112 -8,6 C -2,7 C 1,9 km/h (1 Bft)
06.03.2015 18:55 -1,7 C 1,1 C 59 % 59 % 1035,3 hPa 0,0 l/m 0,6 km/h (0 Bft) O-SO 112 -8,6 C -3,0 C 1,9 km/h (1 Bft)
06.03.2015 19:00 -1,8 C 1,1 C 60 % 60 % 1035,3 hPa 0,0 l/m 1,3 km/h (1 Bft) O-SO 112 -8,5 C -3,2 C 0,0 km/h (0 Bft)
06.03.2015 19:05 -2,0 C 1,1 C 60 % 60 % 1035,3 hPa 0,0 l/m 1,0 km/h (0 Bft) O-SO 112 -8,7 C -3,3 C 0,0 km/h (0 Bft)
06.03.2015 19:10 -2,5 C 1,1 C 60 % 60 % 1035,3 hPa 0,0 l/m 0,0 km/h (0 Bft) O-SO 112 -9,2 C -3,6 C 0,0 km/h (0 Bft)
06.03.2015 19:15 -2,9 C 1,1 C 61 % 61 % 1035,5 hPa 0,0 l/m 0,0 km/h (0 Bft) O-SO 112 -9,3 C -4,1 C 0,0 km/h (0 Bft)
06.03.2015 19:20 -2,9 C 1,1 C 63 % 63 % 1035,5 hPa 0,0 l/m 0,0 km/h (0 Bft) O-SO 112 -8,9 C -4,4 C 0,0 km/h (0 Bft)
06.03.2015 19:25 -3,0 C 1,1 C 63 % 63 % 1035,5 hPa 0,0 l/m 0,0 km/h (0 Bft) O-SO 112 -9,0 C -4,5 C 0,0 km/h (0 Bft)
06.03.2015 19:30 -2,9 C 1,1 C 65 % 65 % 1035,5 hPa 0,0 l/m 0,0 km/h (0 Bft) O-SO 112 -8,5 C -4,5 C 0,0 km/h (0 Bft)
06.03.2015 19:35 -3,2 C 1,1 C 64 % 64 % 1035,0 hPa 0,0 l/m 0,0 km/h (0 Bft) O-SO 112 -9,0 C -4,6 C 0,0 km/h (0 Bft)
06.03.2015 19:40 -3,3 C 1,2 C 65 % 65 % 1035,0 hPa 0,0 l/m 0,0 km/h (0 Bft) O-SO 112 -8,9 C -4,9 C 0,0 km/h (0 Bft)
06.03.2015 19:45 -3,7 C 1,2 C 64 % 64 % 1035,0 hPa 0,0 l/m 0,0 km/h (0 Bft) O-SO 112 -9,5 C -5,0 C 0,0 km/h (0 Bft)
06.03.2015 19:50 -3,9 C 1,1 C 65 % 65 % 1035,0 hPa 0,0 l/m 0,0 km/h (0 Bft) O-SO 112 -9,5 C -5,4 C 0,0 km/h (0 Bft)
06.03.2015 19:55 -4,1 C 1,1 C 65 % 65 % 1034,9 hPa 0,0 l/m 0,0 km/h (0 Bft) O-SO 112 -9,7 C -5,5 C 0,0 km/h (0 Bft)
06.03.2015 20:00 -4,4 C 1,1 C 66 % 66 % 1034,9 hPa 0,0 l/m 0,0 km/h (0 Bft) O-SO 112 -9,8 C -5,6 C 0,0 km/h (0 Bft)
06.03.2015 20:05 -4,4 C 1,1 C 66 % 66 % 1034,9 hPa 0,0 l/m 0,0 km/h (0 Bft) O-SO 112 -9,8 C -5,7 C 0,0 km/h (0 Bft)
06.03.2015 20:10 -4,3 C 1,1 C 67 % 67 % 1034,9 hPa 0,0 l/m 0,0 km/h (0 Bft) O-SO 112 -9,5 C -5,8 C 0,0 km/h (0 Bft)
06.03.2015 20:15 -4,1 C 1,1 C 67 % 67 % 1034,9 hPa 0,0 l/m 0,0 km/h (0 Bft) O-SO 112 -9,3 C -5,8 C 0,0 km/h (0 Bft)
06.03.2015 20:20 -4,3 C 1,1 C 67 % 67 % 1034,9 hPa 0,0 l/m 0,0 km/h (0 Bft) O-SO 112 -9,5 C -5,8 C 0,0 km/h (0 Bft)
06.03.2015 20:25 -4,3 C 1,1 C 67 % 67 % 1034,9 hPa 0,0 l/m 0,0 km/h (0 Bft) N-NO 22 -9,5 C -5,9 C 0,0 km/h (0 Bft)
06.03.2015 20:30 -4,7 C 1,1 C 68 % 68 % 1034,9 hPa 0,0 l/m 0,0 km/h (0 Bft) N-NO 22 -9,7 C -6,0 C 0,0 km/h (0 Bft)
06.03.2015 20:35 -4,7 C 1,1 C 68 % 68 % 1035,6 hPa 0,0 l/m 0,0 km/h (0 Bft) N-NO 22 -9,7 C -6,0 C 0,0 km/h (0 Bft)
06.03.2015 20:40 -4,9 C 1,1 C 68 % 68 % 1035,6 hPa 0,0 l/m 0,0 km/h (0 Bft) N-NO 22 -9,9 C -6,2 C 0,0 km/h (0 Bft)
06.03.2015 20:45 -4,9 C 1,1 C 69 % 69 % 1035,6 hPa 0,0 l/m 0,2 km/h (0 Bft) O-SO 112 -9,7 C -6,2 C 0,0 km/h (0 Bft)
06.03.2015 20:50 -4,5 C 1,1 C 71 % 71 % 1035,6 hPa 0,0 l/m 0,2 km/h (0 Bft) O-SO 112 -8,9 C -5,8 C 0,0 km/h (0 Bft)
06.03.2015 20:55 -4,5 C 1,1 C 71 % 71 % 1035,8 hPa 0,0 l/m 0,0 km/h (0 Bft) O-NO 67 -8,9 C -5,7 C 0,0 km/h (0 Bft)
06.03.2015 21:00 -4,9 C 1,1 C 70 % 70 % 1035,8 hPa 0,0 l/m 0,0 km/h (0 Bft) O-NO 67 -9,5 C -6,0 C 0,0 km/h (0 Bft)
06.03.2015 21:05 -5,3 C 1,1 C 70 % 70 % 1035,8 hPa 0,0 l/m 0,0 km/h (0 Bft) O-NO 67 -9,9 C -6,3 C 0,0 km/h (0 Bft)
06.03.2015 21:10 -5,3 C 1,1 C 70 % 70 % 1035,8 hPa 0,0 l/m 0,0 km/h (0 Bft) O-NO 67 -9,9 C -6,5 C 0,0 km/h (0 Bft)
06.03.2015 21:15 -5,6 C 1,1 C 70 % 70 % 1036,0 hPa 0,0 l/m 0,0 km/h (0 Bft) O-NO 67 -10,2 C -6,6 C 0,0 km/h (0 Bft)
06.03.2015 21:20 -5,5 C 1,1 C 71 % 71 % 1036,0 hPa 0,0 l/m 0,0 km/h (0 Bft) O 90 -9,9 C -6,7 C 0,0 km/h (0 Bft)
06.03.2015 21:25 -5,5 C 1,1 C 71 % 71 % 1036,0 hPa 0,0 l/m 0,0 km/h (0 Bft) O-NO 67 -9,9 C -6,8 C 0,0 km/h (0 Bft)
06.03.2015 21:30 -5,3 C 1,1 C 71 % 71 % 1036,0 hPa 0,0 l/m 0,0 km/h (0 Bft) O-SO 112 -9,7 C -6,9 C 0,0 km/h (0 Bft)
06.03.2015 21:35 -5,3 C 1,1 C 72 % 72 % 1035,7 hPa 0,0 l/m 0,0 km/h (0 Bft) NO 45 -9,5 C -6,8 C 0,0 km/h (0 Bft)
06.03.2015 21:40 -5,2 C 1,1 C 72 % 72 % 1035,7 hPa 0,0 l/m 0,0 km/h (0 Bft) O-NO 67 -9,4 C -6,4 C 0,0 km/h (0 Bft)
06.03.2015 21:45 -5,1 C 1,1 C 73 % 73 % 1035,7 hPa 0,0 l/m 0,0 km/h (0 Bft) NO 45 -9,2 C -6,3 C 0,0 km/h (0 Bft)
06.03.2015 21:50 -5,1 C 1,1 C 73 % 73 % 1035,7 hPa 0,0 l/m 0,0 km/h (0 Bft) O-SO 112 -9,2 C -6,3 C 0,0 km/h (0 Bft)
06.03.2015 21:55 -5,1 C 1,1 C 73 % 73 % 1035,7 hPa 0,0 l/m 0,0 km/h (0 Bft) O-SO 112 -9,2 C -6,3 C 0,0 km/h (0 Bft)
06.03.2015 22:00 -4,9 C 1,1 C 73 % 73 % 1035,7 hPa 0,0 l/m 0,0 km/h (0 Bft) NO 45 -9,0 C -6,1 C 0,0 km/h (0 Bft)
06.03.2015 22:05 -5,1 C 1,1 C 73 % 73 % 1035,7 hPa 0,0 l/m 0,0 km/h (0 Bft) NO 45 -9,2 C -6,1 C 0,0 km/h (0 Bft)
06.03.2015 22:10 -5,2 C 1,1 C 73 % 73 % 1035,7 hPa 0,0 l/m 0,0 km/h (0 Bft) NO 45 -9,3 C -6,3 C 0,0 km/h (0 Bft)
06.03.2015 22:15 -5,1 C 1,1 C 73 % 73 % 1035,6 hPa 0,0 l/m 0,0 km/h (0 Bft) SO 135 -9,2 C -6,4 C 0,0 km/h (0 Bft)
06.03.2015 22:20 -5,1 C 1,1 C 74 % 74 % 1035,6 hPa 0,0 l/m 0,0 km/h (0 Bft) N-NO 22 -9,0 C -6,5 C 0,0 km/h (0 Bft)
06.03.2015 22:25 -5,3 C 1,1 C 74 % 74 % 1035,6 hPa 0,0 l/m 0,0 km/h (0 Bft) N-NO 22 -9,2 C -6,5 C 0,0 km/h (0 Bft)
06.03.2015 22:30 -5,8 C 1,1 C 74 % 74 % 1035,6 hPa 0,0 l/m 0,0 km/h (0 Bft) N-NO 22 -9,7 C -6,8 C 0,0 km/h (0 Bft)
06.03.2015 22:35 -6,0 C 1,1 C 74 % 74 % 1035,8 hPa 0,0 l/m 0,0 km/h (0 Bft) N-NO 22 -9,9 C -7,0 C 0,0 km/h (0 Bft)
06.03.2015 22:40 -5,7 C 1,1 C 74 % 74 % 1035,8 hPa 0,0 l/m 0,0 km/h (0 Bft) N-NO 22 -9,6 C -7,0 C 0,0 km/h (0 Bft)
06.03.2015 22:45 -5,9 C 1,1 C 74 % 74 % 1035,8 hPa 0,0 l/m 0,0 km/h (0 Bft) N-NO 22 -9,8 C -7,3 C 0,0 km/h (0 Bft)
06.03.2015 22:50 -6,3 C 1,1 C 74 % 74 % 1035,8 hPa 0,0 l/m 0,0 km/h (0 Bft) N-NO 22 -10,2 C -7,4 C 0,0 km/h (0 Bft)
06.03.2015 22:55 -6,3 C 1,1 C 74 % 74 % 1035,9 hPa 0,0 l/m 0,0 km/h (0 Bft) N-NO 22 -10,2 C -7,6 C 0,0 km/h (0 Bft)
06.03.2015 23:00 -6,5 C 1,1 C 74 % 74 % 1035,9 hPa 0,0 l/m 0,0 km/h (0 Bft) N-NO 22 -10,3 C -7,6 C 0,0 km/h (0 Bft)
06.03.2015 23:05 -6,4 C 1,1 C 74 % 74 % 1035,9 hPa 0,0 l/m 0,0 km/h (0 Bft) O-NO 67 -10,2 C -7,6 C 0,0 km/h (0 Bft)
06.03.2015 23:10 -6,4 C 1,1 C 75 % 75 % 1035,9 hPa 0,0 l/m 0,0 km/h (0 Bft) N-NO 22 -10,1 C -7,6 C 0,0 km/h (0 Bft)
06.03.2015 23:15 -6,4 C 1,1 C 75 % 75 % 1035,8 hPa 0,0 l/m 0,0 km/h (0 Bft) N-NO 22 -10,1 C -7,6 C 0,0 km/h (0 Bft)
06.03.2015 23:20 -6,4 C 1,1 C 75 % 75 % 1035,8 hPa 0,0 l/m 0,0 km/h (0 Bft) NO 45 -10,1 C -7,5 C 0,0 km/h (0 Bft)
06.03.2015 23:25 -6,5 C 1,1 C 75 % 75 % 1035,8 hPa 0,0 l/m 0,0 km/h (0 Bft) NO 45 -10,2 C -7,5 C 0,0 km/h (0 Bft)
06.03.2015 23:30 -6,9 C 1,1 C 75 % 75 % 1035,8 hPa 0,0 l/m 0,0 km/h (0 Bft) NO 45 -10,6 C -7,8 C 0,0 km/h (0 Bft)
06.03.2015 23:35 -6,9 C 1,1 C 75 % 75 % 1036,0 hPa 0,0 l/m 0,0 km/h (0 Bft) NO 45 -10,6 C -7,9 C 0,0 km/h (0 Bft)
06.03.2015 23:40 -6,8 C 1,1 C 75 % 75 % 1036,0 hPa 0,0 l/m 0,0 km/h (0 Bft) NO 45 -10,5 C -7,9 C 0,0 km/h (0 Bft)
06.03.2015 23:45 -6,7 C 1,1 C 76 % 76 % 1036,0 hPa 0,0 l/m 0,0 km/h (0 Bft) NO 45 -10,2 C -7,8 C 0,0 km/h (0 Bft)
06.03.2015 23:50 -6,8 C 1,1 C 76 % 76 % 1036,0 hPa 0,0 l/m 0,0 km/h (0 Bft) NO 45 -10,3 C -7,7 C 0,0 km/h (0 Bft)
06.03.2015 23:55 -6,7 C 1,1 C 76 % 76 % 1035,6 hPa 0,0 l/m 0,0 km/h (0 Bft) NO 45 -10,2 C -7,8 C 0,0 km/h (0 Bft)
_ Min-Zeit 07:05 12:55 14:25 14:25 18:10 - 23:55 - - 07:05 07:05 23:55
Minimum _ -7,6 C 1,0 C 39 % 39 % 1034,6 hPa - 0,0 km/h (0 Bft) - - -10,6 C -8,3 C 0,0 km/h (0 Bft)
_ Max-Zeit 14:50 19:45 09:15 09:15 11:30 23:55 13:05 - - 11:10 11:10 13:00
Maximum _ 11,1 C 1,2 C 83 % 83 % 1040,1 hPa 0,0 l/m 5,0 km/h
N (1 Bft)
- - 1,4 C 16,7 C 11,9 km/h
N-NO (2 Bft)
Durchschnitt _ -0,3 C 1,1 C 66 % 66 % 1036,3 hPa #0,0 l/m 0,7 km/h (0 Bft) O-SO - -6,4 C 0,5 C 0,9 km/h (0 Bft)